Location: Bruch
(44.2051°N, 0.4120°E)
Time: 18:32:27
(UTC+00:00)

ATLAS 2AS CENTAUR R/B - Pass Details

Date: 29 November 2020
Orbit: 943 x 1268 km, 63.7° (Epoch: 21 January)

Event Time Altitude Azimuth Distance (km) Brightness Sun altitude
Exits shadow 06:03:11 - 254° (WSW) 3,479 4.9 -12.0°
Reaches altitude 10° 06:03:56 10° 257° (WSW) 3,254 4.7 -11.9°
Maximum altitude 06:11:11 37° 323° (NW) 1,855 3.6 -10.7°
Drops below altitude 10° 06:18:19 10° 29° (NNE) 3,198 5.3 -9.5°
Sets 06:21:20 0° 38° (NE) 4,129 6.0 -9.0°
